EDT,Max TemperatureF,Mean TemperatureF,Min TemperatureF,Max Dew PointF,MeanDew PointF,Min DewpointF,Max Humidity, Mean Humidity, Min Humidity, Max Sea Level PressureIn, Mean Sea Level PressureIn, Min Sea Level PressureIn, Max VisibilityMiles, Mean VisibilityMiles, Min VisibilityMiles, Max Wind SpeedMPH, Mean Wind SpeedMPH, Max Gust SpeedMPH,PrecipitationIn, CloudCover, Events, WindDirDegrees
2012-9-1,91,80,69,79,75,70,100,84,49,30.21,30.14,30.07,10.0,9.3,0.5,12,2,17,0.00,2,Fog,269
2012-9-2,91,81,71,79,74,72,100,87,52,30.10,30.05,29.99,10.0,9.8,3.0,18,1,23,0.00,1,Rain-Thunderstorm,251
2012-9-3,91,82,73,77,74,72,100,86,52,30.05,30.00,29.95,10.0,9.8,4.0,16,4,28,0.00,4,Rain-Thunderstorm,184
2012-9-4,86,78,71,79,74,72,100,93,66,30.01,29.97,29.92,10.0,8.5,1.8,8,4,18,0.00,4,Rain-Thunderstorm,185
2012-9-5,86,78,71,77,72,72,100,91,62,30.01,29.96,29.92,10.0,7.5,0.2,17,3,24,0.00,5,Fog-Rain,208
2012-9-6,87,78,69,77,73,70,100,86,58,30.03,29.97,29.92,10.0,9.3,5.0,8,2,,0.00,4,,266
2012-9-7,91,81,71,77,73,70,100,85,49,29.99,29.93,29.87,10.0,9.3,1.0,8,1,38,0.00,2,Rain-Thunderstorm,224
2012-9-8,87,79,71,77,73,70,100,89,58,29.90,29.85,29.78,10.0,9.7,7.0,14,4,21,0.00,4,Rain-Thunderstorm,217
2012-9-9,80,72,64,72,68,63,100,87,54,30.01,29.90,29.81,10.0,8.9,0.8,9,3,,0.00,5,,8
2012-9-10,82,70,57,64,60,54,100,73,37,30.14,30.08,30.01,10.0,10.0,10.0,10,3,17,0.00,2,,61
2012-9-11,82,70,57,63,60,55,100,72,39,30.27,30.21,30.14,10.0,10.0,10.0,10,3,17,0.00,1,,97
2012-9-12,80,70,60,63,59,54,94,68,42,30.32,30.26,30.22,10.0,10.0,10.0,13,5,18,0.00,1,,87
2012-9-13,82,71,60,70,65,59,100,82,62,30.28,30.24,30.20,10.0,10.0,7.0,12,5,18,0.00,4,,71
2012-9-14,86,77,68,66,64,63,83,71,45,30.23,30.18,30.13,10.0,10.0,10.0,10,4,,0.00,5,,55
2012-9-15,86,73,60,68,64,59,100,76,40,30.19,30.14,30.09,10.0,10.0,10.0,9,1,,0.00,1,,83
2012-9-16,87,74,62,72,65,61,100,76,40,30.14,30.09,30.03,10.0,10.0,10.0,8,2,,0.00,2,,138
2012-9-17,87,78,68,73,70,68,100,81,52,30.08,30.00,29.90,10.0,10.0,7.0,13,5,25,0.00,4,Rain,158
2012-9-18,78,74,69,73,72,70,100,97,78,29.91,29.83,29.77,10.0,9.7,3.0,12,7,20,0.00,7,Rain-Thunderstorm,198
2012-9-19,80,71,62,70,67,63,100,88,58,30.09,29.99,29.89,10.0,8.9,3.0,8,4,,0.00,2,,6
2012-9-20,78,70,62,68,65,63,100,87,57,30.14,30.09,30.05,10.0,9.6,5.0,8,5,,0.00,2,,92
2012-9-21,84,72,60,70,65,61,100,82,48,30.10,30.06,30.01,10.0,9.6,5.0,6,1,,0.00,2,,107
2012-9-22,87,74,60,72,66,61,100,83,46,30.08,30.03,29.97,10.0,8.5,0.2,9,2,,0.00,2,Fog,284
2012-9-23,82,70,57,68,57,46,100,71,28,30.14,30.08,30.03,10.0,10.0,10.0,14,3,22,0.00,0,,339
2012-9-24,80,63,46,61,53,45,100,71,37,30.18,30.13,30.10,10.0,10.0,7.0,8,2,,0.00,0,,60
2012-9-25,80,70,59,61,57,52,100,70,37,30.23,30.19,30.16,10.0,10.0,10.0,10,3,,0.00,0,,99
2012-9-26,86,70,55,70,62,55,100,76,45,30.23,30.18,30.13,10.0,10.0,10.0,6,2,,0.00,1,,109
2012-9-27,86,75,64,73,68,64,100,85,48,30.22,30.16,30.10,10.0,7.8,0.2,7,1,,0.00,4,Fog,54
2012-9-28,86,73,60,72,66,61,100,79,45,30.14,30.09,30.01,10.0,9.4,0.8,6,1,,0.00,1,,296
2012-9-29,84,73,62,72,68,63,100,88,62,30.05,29.97,29.87,10.0,9.9,7.0,10,3,,0.00,2,Rain-Thunderstorm,217
2012-9-30,77,72,68,72,71,68,100,98,83,29.91,29.87,29.82,10.0,9.6,2.0,7,2,,0.00,6,Rain,124